Weather History for Clarksburg, WV

Change the Weather History Date:

Sunday, August 11, 2013

  Actual Average Record
Temperature  
Mean Temperature 71 °F -  
Max Temperature 82 °F 82 °F 96 °F (1955)
Min Temperature 60 °F 60 °F 45 °F (1930)
Cooling Degree Days 6    
Growing Degree Days 21 (Base 50)    
Moisture  
Dew Point 63 °F    
Average Humidity 81    
Maximum Humidity 100    
Minimum Humidity 47    
Precipitation  
Precipitation 0.00 in - - ()
Sea Level Pressure  
Sea Level Pressure 30.08 in    
Wind  
Wind Speed 0 mph (WNW)    
Max Wind Speed 5 mph    
Max Gust Speed -    
Visibility 7 miles    
Events Fog    
Averages and records for this station are not official NWS values.
T = Trace of Precipitation, MM = Missing Value Source: NWS Daily Summary

Daily Weather History Graph

Daily Weather History Graph

Search for Another Location

Airport:

Trip Planner

Search our weather history database for the weather conditions in past years. The results will help you decide how hot, cold, wet, or windy it might be!

Date:

Astronomy

Aug. 11, 2013 Rise Set
Actual Time 6:30 AM EDT 8:21 PM EDT
Civil Twilight 6:01 AM EDT 8:50 PM EDT
Nautical Twilight 5:26 AM EDT 9:25 PM EDT
Astronomical Twilight 4:48 AM EDT 10:02 PM EDT
Moon 11:14 AM EDT (8/11) 10:38 PM EDT (8/11)
Length of Visible Light 14h 48m
Length of Day
13h 50m
Waxing Crescent, 22% of the Moon is Illuminated
Aug 11
Waxing Crescent
Aug 14
First Quarter
Aug 20
Full
Aug 28
Last Quarter
Sep 5
New

Hourly Weather History & Observations

Time (EDT) Temp. Heat Index Dew Point Humidity Pressure Visibility Wind Dir Wind Speed Gust Speed Precip Events Conditions
12:53 AM 64.0 °F - 62.1 °F 93% 30.08 in 9.0 mi Calm Calm - N/A   Scattered Clouds
1:53 AM 64.9 °F - 63.0 °F 93% 30.07 in 9.0 mi Calm Calm - N/A   Overcast
2:53 AM 64.9 °F - 62.1 °F 90% 30.07 in 9.0 mi Calm Calm - N/A   Overcast
3:53 AM 64.0 °F - 62.1 °F 93% 30.08 in 6.0 mi Calm Calm - N/A   Clear
4:53 AM 63.0 °F - 61.0 °F 93% 30.08 in 6.0 mi Calm Calm - N/A   Overcast
5:49 AM 62.6 °F - 60.8 °F 94% 30.12 in 3.0 mi Calm Calm - N/A   Partly Cloudy
5:53 AM 62.1 °F - 60.1 °F 93% 30.08 in 4.0 mi Calm Calm - N/A   Partly Cloudy
6:25 AM 62.6 °F - 60.8 °F 94% 30.13 in 0.8 mi Calm Calm - N/A   Scattered Clouds
6:53 AM 62.1 °F - 61.0 °F 96% 30.09 in 3.0 mi Calm Calm - N/A   Overcast
7:13 AM 60.8 °F - 60.8 °F 100% 30.14 in 1.5 mi Calm Calm - N/A   Partly Cloudy
7:21 AM 60.8 °F - 60.8 °F 100% 30.14 in 0.5 mi Calm Calm - N/A Fog Fog
7:27 AM 60.8 °F - 60.8 °F 100% 30.14 in 2.0 mi Calm Calm - N/A   Mist
7:32 AM 62.6 °F - 60.8 °F 94% 30.14 in 0.8 mi Calm Calm - N/A   Mist
7:53 AM 62.1 °F - 61.0 °F 96% 30.11 in 0.2 mi Calm Calm - N/A Fog Fog
8:17 AM 64.4 °F - 62.6 °F 94% 30.15 in 2.0 mi Calm Calm - N/A   Overcast
8:25 AM 64.4 °F - 62.6 °F 94% 30.14 in 4.0 mi Calm Calm - N/A   Mostly Cloudy
8:39 AM 66.2 °F - 62.6 °F 88% 30.15 in 9.0 mi Calm Calm - N/A   Partly Cloudy
8:53 AM 68.0 °F - 63.0 °F 84% 30.11 in 10.0 mi Calm Calm - N/A   Clear
9:53 AM 73.0 °F - 64.0 °F 73% 30.10 in 10.0 mi Calm Calm - N/A   Scattered Clouds
10:53 AM 77.0 °F - 64.0 °F 64% 30.10 in 10.0 mi Calm Calm - N/A   Partly Cloudy
11:53 AM 78.1 °F - 62.1 °F 58% 30.09 in 10.0 mi SSW 3.5 mph - N/A   Scattered Clouds
12:53 PM 80.1 °F 81.5 °F 63.0 °F 56% 30.08 in 10.0 mi NNW 3.5 mph - N/A   Scattered Clouds
1:53 PM 81.0 °F 82.2 °F 63.0 °F 54% 30.06 in 10.0 mi Calm Calm - N/A   Partly Cloudy
2:53 PM 82.9 °F 83.3 °F 61.0 °F 47% 30.05 in 10.0 mi NW 4.6 mph - N/A   Mostly Cloudy
3:53 PM 82.0 °F 83.1 °F 63.0 °F 52% 30.03 in 10.0 mi Calm Calm - N/A   Mostly Cloudy
4:53 PM 81.0 °F 82.2 °F 63.0 °F 54% 30.02 in 10.0 mi Variable 3.5 mph - N/A   Mostly Cloudy
5:53 PM 82.0 °F 83.4 °F 64.0 °F 54% 30.02 in 10.0 mi WNW 3.5 mph - N/A   Mostly Cloudy
6:53 PM 82.0 °F 83.1 °F 63.0 °F 52% 30.01 in 10.0 mi Calm Calm - N/A   Scattered Clouds
7:53 PM 79.0 °F - 66.0 °F 64% 30.02 in 10.0 mi Calm Calm - N/A   Clear
8:53 PM 73.0 °F - 66.9 °F 81% 30.03 in 10.0 mi Calm Calm - N/A   Scattered Clouds
9:53 PM 71.1 °F - 66.9 °F 87% 30.04 in 8.0 mi Calm Calm - N/A   Clear
10:53 PM 70.0 °F - 66.9 °F 90% 30.04 in 7.0 mi Calm Calm - N/A   Clear
11:53 PM 68.0 °F - 66.0 °F 93% 30.04 in 4.0 mi Calm Calm - N/A   Clear